This is the latest recevied weather packets stored in our database for station/object W5ADC. If no packets are shown the sender has not sent any weather packets the latest 10 day(s).
| Time | Temp. | Humidity | Pressure | Rain* | Wind** | Luminosity | Snow |
|---|---|---|---|---|---|---|---|
| 1777841874 | 27.22° C | 34% | 1013.2 hPa | 0 mm | - | 609 W/m² | - |
| 1777841571 | 27.22° C | 33% | 1013.5 hPa | 0 mm | - | 627 W/m² | - |
| 1777841268 | 27.22° C | 33% | 1013.3 hPa | 0 mm | - | 628 W/m² | - |
| 1777840965 | 27.22° C | 32% | 1013.6 hPa | 0 mm | - | 644 W/m² | - |
| 1777840663 | 27.22° C | 33% | 1013.6 hPa | 0 mm | - | 651 W/m² | - |
| 1777840360 | 27.78° C | 33% | 1013.8 hPa | 0 mm | - | 674 W/m² | - |
| 1777840057 | 27.22° C | 33% | 1014.1 hPa | 0 mm | - | 682 W/m² | - |
| 1777839755 | 27.78° C | 35% | 1013.9 hPa | 0 mm | - | 707 W/m² | - |
| 1777839452 | 26.11° C | 37% | 1014 hPa | 0 mm | - | 750 W/m² | - |
| 1777839150 | 26.67° C | 36% | 1014.2 hPa | 0 mm | - | 198 W/m² | - |
| 1777838846 | 27.78° C | 35% | 1014.2 hPa | 0 mm | - | 772 W/m² | - |
| 1777838543 | 27.78° C | 36% | 1014.3 hPa | 0 mm | - | 749 W/m² | - |
| 1777838239 | 26.67° C | 35% | 1014.5 hPa | 0 mm | - | 754 W/m² | - |
| 1777837936 | 26.67° C | 35% | 1014.6 hPa | 0 mm | - | 792 W/m² | - |
| 1777837634 | 27.22° C | 36% | 1014.6 hPa | 0 mm | - | 765 W/m² | - |
| 1777837330 | 26.67° C | 33% | 1014.7 hPa | 0 mm | - | 812 W/m² | - |
| 1777837026 | 27.22° C | 33% | 1014.7 hPa | 0 mm | - | 787 W/m² | - |
| 1777836722 | 27.22° C | 33% | 1014.8 hPa | 0 mm | - | 785 W/m² | - |
| 1777836417 | 27.22° C | 34% | 1014.9 hPa | 0 mm | - | 787 W/m² | - |
| 1777836113 | 27.22° C | 35% | 1014.8 hPa | 0 mm | - | 787 W/m² | - |
| 1777835810 | 26.67° C | 33% | 1014.9 hPa | 0 mm | - | 787 W/m² | - |
| 1777835507 | 26.67° C | 35% | 1015 hPa | 0 mm | - | 795 W/m² | - |
| 1777835204 | 26.67° C | 34% | 1015.2 hPa | 0 mm | - | 799 W/m² | - |
| 1777834901 | 27.22° C | 35% | 1015.3 hPa | 0 mm | - | 809 W/m² | - |
| 1777834597 | 27.78° C | 35% | 1015.2 hPa | 0 mm | - | 799 W/m² | - |
* Rain latest hour (hover to see other rain measurements)
** Current wind speed in m/s (hover to see current wind gust speed)